Location: Unnamed
(33.0780°N, 97.0417°W)
Time: 21:21:20
(UTC-05:00)

X-37B - Pass Details

Date: 11 April 2021
Orbit: 383 x 392 km, 45.0° (Epoch: 01 July)

Event Time Altitude Azimuth Distance (km) Brightness Sun altitude
Exits shadow 06:18:46 11° 223° (SW) 1,321 2.7 -9.8°
Maximum altitude 06:21:40 59° 143° (SE) 445 1.0 -9.2°
Drops below altitude 10° 06:24:47 10° 63° (ENE) 1,406 5.0 -8.6°
Sets 06:26:53 0° 59° (ENE) 2,264 6.3 -8.2°
